Tracking 35331 objects as of 14-Sep-2026
HD Live streaming from Space Station
objects crossing your sky now

STARLINK-34137

Track STARLINK-34137 now!
10-day predictions
STARLINK-34137 is classified as:


NORAD ID: 63953
Int'l Code: 2025-099B
Launch date: May 13, 2025
Source: United States (US)
Launch site: AIR FORCE EASTERN TEST RANGE (AFETR)
Your satellite tracking list
Your tracking list is empty




NASA's NSSDC Master Catalog

Two Line Element Set (TLE):
1 63953U 25099B   26256.53136365  .00011923  00000-0  44201-3 0  9994
2 63953  42.9977 195.4415 0000355 267.8201  92.2610 15.27585877 76068
Source of the keplerian elements: AFSPC